DW8492 Weather Reports


Display with metric or nautical units.
time (UTC)temp
F
wind
direction
speed
MPH
gust
MPH
rain 1hr
in
rain 24hr
in
rain mn
in
humidity
%
barometer
mb
20260906031503 62 42 0.0 0.0 0.00 0.02 0.02 89 1013.2
20260906030040 62 42 0.0 0.0 0.00 0.02 0.02 88 1013.1
20260906024508 63 42 0.0 0.0 0.00 0.02 0.02 88 1013.0
20260906023056 64 42 0.0 1.0 0.00 0.02 0.02 87 1013.0
20260906021509 64 44 0.0 0.0 0.00 0.02 0.02 86 1012.9
20260906020050 65 49 0.0 0.0 0.00 0.02 0.02 86 1012.6
20260906014522 66 49 0.0 1.0 0.00 0.02 0.02 84 1012.6
20260906013047 67 57 0.0 0.0 0.00 0.02 0.02 83 1012.5
20260906011510 67 57 1.0 2.0 0.00 0.02 0.02 81 1012.4
20260906010005 67 360 2.0 4.0 0.00 0.02 0.02 82 1012.1
20260906004549 68 17 0.0 0.0 0.00 0.02 0.02 82 1012.0
20260906003011 69 17 0.0 0.0 0.00 0.02 0.02 79 1011.8
20260906001551 70 17 1.0 3.0 0.00 0.02 0.02 76 1011.6
20260906000109 71 5 0.0 3.0 0.00 0.02 0.02 76 1011.4
20260905234531 72 31 0.0 2.0 0.00 0.02 0.02 76 1011.4
20260905233108 73 31 0.0 1.0 0.00 0.02 0.02 73 1011.4
20260905231539 74 351 0.0 6.0 0.00 0.02 0.02 70 1011.4
20260905230113 75 360 2.0 3.0 0.00 0.02 0.02 68 1011.2
20260905224555 77 355 1.0 4.0 0.00 0.02 0.02 66 1011.3
20260905223023 77 342 1.0 5.0 0.00 0.02 0.02 65 1011.1
20260905221617 77 17 1.0 6.0 0.00 0.02 0.02 67 1011.0
20260905220055 78 344 4.0 7.0 0.00 0.02 0.02 63 1010.8
20260905214523 78 350 1.0 6.0 0.00 0.02 0.02 66 1010.7
20260905213105 78 5 1.0 3.0 0.00 0.02 0.02 70 1010.6
20260905211511 77 16 1.0 7.0 0.00 0.02 0.02 72 1010.6
20260905210103 78 17 2.0 5.0 0.00 0.02 0.02 72 1010.5
20260905204509 77 29 2.0 4.0 0.00 0.02 0.02 73 1010.7
20260905203018 79 271 1.0 5.0 0.00 0.02 0.02 71 1010.7
20260905201556 77 26 1.0 3.0 0.00 0.02 0.02 75 1010.8
20260905200019 77 26 0.0 5.0 0.00 0.02 0.02 76 1010.8
20260905194608 77 355 0.0 3.0 0.00 0.02 0.02 75 1010.9
20260905193040 77 142 0.0 2.0 0.00 0.02 0.02 77 1011.1
20260905191604 77 142 0.0 1.0 0.00 0.02 0.02 76 1011.3
20260905190040 77 142 0.0 3.0 0.00 0.02 0.02 75 1011.3
20260905184540 77 26 2.0 6.0 0.00 0.02 0.02 74 1011.4
20260905183110 77 5 1.0 4.0 0.00 0.02 0.02 79 1011.7
20260905181535 75 355 0.0 3.0 0.00 0.02 0.02 81 1011.7
20260905180116 74 314 1.0 5.0 0.00 0.02 0.02 82 1011.9
20260905174602 74 355 0.0 5.0 0.00 0.02 0.02 87 1012.0
20260905173035 73 360 1.0 4.0 0.02 0.02 0.02 89 1012.0
20260905170020 73 360 0.0 0.0 0.02 0.02 0.02 92 1012.3
20260905163004 73 360 0.0 4.0 0.00 0.00 0.00 87 1012.5
20260905161544 74 60 0.0 3.0 0.00 0.00 0.00 84 1012.6
20260905160007 74 51 0.0 1.0 0.00 0.00 0.00 84 1012.8
20260905154549 74 55 1.0 3.0 0.00 0.00 0.00 83 1012.7
20260905151504 74 222 0.0 2.0 0.00 0.00 0.00 87 1012.5
20260905150040 73 346 0.0 5.0 0.00 0.00 0.00 92 1012.2
20260905144608 72 306 0.0 0.0 0.00 0.01 0.00 96 1012.2
20260905143029 70 221 0.0 0.0 0.00 0.01 0.00 98 1012.0
20260905141559 70 344 0.0 0.0 0.00 0.01 0.00 99 1011.9
20260905140022 69 344 0.0 3.0 0.00 0.01 0.00 99 1012.0
20260905134609 68 344 0.0 0.0 0.00 0.01 0.00 98 1012.2
20260905133008 68 344 0.0 0.0 0.00 0.01 0.00 98 1012.4
20260905131544 68 344 0.0 0.0 0.00 0.01 0.00 99 1012.5
20260905130018 67 344 0.0 2.0 0.00 0.01 0.00 98 1012.5
20260905124600 67 344 0.0 2.0 0.00 0.01 0.00 99 1012.4
20260905123028 66 344 0.0 0.0 0.00 0.01 0.00 98 1012.6
20260905121547 66 344 0.0 0.0 0.00 0.01 0.00 98 1012.6
20260905120023 66 344 0.0 0.0 0.00 0.01 0.00 98 1012.5
20260905114701 66 344 0.0 1.0 0.00 0.01 0.00 98 1012.3
20260905113019 65 344 0.0 0.0 0.00 0.01 0.00 98 1012.1
20260905111655 65 344 0.0 0.0 0.00 0.01 0.00 98 1012.0
20260905110035 65 344 0.0 0.0 0.00 0.01 0.00 98 1012.1
20260905104509 65 344 0.0 0.0 0.00 0.01 0.00 98 1012.1
20260905103040 65 344 0.0 0.0 0.00 0.01 0.00 98 1012.1
20260905101509 66 344 0.0 1.0 0.00 0.01 0.00 98 1011.7
20260905100043 66 344 0.0 3.0 0.00 0.01 0.00 98 1011.5
20260905094502 66 344 0.0 2.0 0.00 0.01 0.00 98 1011.2
20260905093053 66 344 0.0 2.0 0.00 0.01 0.00 98 1011.4
20260905091507 66 344 0.0 0.0 0.00 0.01 0.00 98 1011.6
20260905090044 65 344 0.0 0.0 0.00 0.01 0.00 98 1011.4
20260905084510 65 344 0.0 0.0 0.00 0.01 0.00 98 1011.4
20260905083057 65 344 0.0 0.0 0.00 0.01 0.00 98 1011.3
20260905081514 65 344 0.0 0.0 0.00 0.01 0.00 98 1011.4
20260905080029 65 344 0.0 0.0 0.00 0.01 0.00 97 1011.3
20260905074553 65 344 0.0 0.0 0.00 0.01 0.00 98 1011.3
20260905073001 65 344 0.0 0.0 0.00 0.01 0.00 97 1011.5
20260905071544 65 344 0.0 0.0 0.00 0.01 0.00 98 1011.7
20260905070115 65 344 0.0 0.0 0.00 0.01 0.00 97 1011.9
20260905064545 66 344 0.0 0.0 0.00 0.01 0.00 97 1012.4
20260905063116 66 344 0.0 0.0 0.00 0.01 0.00 97 1012.5
20260905061536 66 344 0.0 0.0 0.00 0.01 0.00 97 1012.4
20260905060003 66 344 0.0 0.0 0.00 0.01 0.00 97 1012.4
20260905054534 66 344 0.0 0.0 0.00 0.07 0.00 97 1012.6
20260905053059 66 344 0.0 0.0 0.00 0.07 0.00 97 1012.9
20260905051532 66 344 0.0 0.0 0.00 0.07 0.00 97 1012.9
20260905050058 66 344 0.0 0.0 0.00 0.07 0.00 97 1012.8
20260905044514 66 344 0.0 0.0 0.00 0.09 0.00 96 1012.9
20260905043108 67 344 0.0 0.0 0.00 0.09 0.00 96 1012.8
20260905041535 67 344 0.0 0.0 0.00 0.09 0.00 96 1012.6
20260905040006 67 344 0.0 0.0 0.00 0.09 0.00 96 1012.6
20260905034547 68 344 0.0 0.0 0.00 0.09 0.09 96 1012.7
20260905033024 68 344 0.0 0.0 0.00 0.09 0.09 96 1012.6